Seattle, WA

3:49 PM PDT on September 26, 2016 (GMT -0700)
Boeing Field-King County International

Weather History for KBFI - November, 2011

Change the Weather History Date:

Thursday, November 3, 2011

  Actual Average Record
Temperature  
Mean Temperature 46 °F -  
Max Temperature 51 °F 55 °F 70 °F (1970)
Min Temperature 42 °F 44 °F 26 °F (2002)
Degree Days  
Heating Degree Days 18    
Moisture  
Dew Point 39 °F    
Average Humidity 77    
Maximum Humidity 89    
Minimum Humidity 58    
Precipitation  
Precipitation 0.00 in - - ()
Sea Level Pressure  
Sea Level Pressure 29.87 in    
Wind  
Wind Speed 6 mph (SE)    
Max Wind Speed 9 mph    
Max Gust Speed -    
Visibility 10 miles    
Events      
Averages and records for this station are not official NWS values.
T = Trace of Precipitation, MM = Missing Value Source: NWS Daily Summary

Daily Weather History Graph

Daily Weather History Graph

Search for Another Location

Airport or City:

Trip Planner

Search our weather history database for the weather conditions in past years. The results will help you decide how hot, cold, wet, or windy it might be!

Date:

Astronomy

Nov. 03, 2011 Rise Set
Actual Time 7:55 AM PDT 5:48 PM PDT
Civil Twilight 7:23 AM PDT 6:21 PM PDT
Nautical Twilight 6:47 AM PDT 6:57 PM PDT
Astronomical Twilight 6:11 AM PDT 7:33 PM PDT
Moon 2:40 PM PDT (11/3) 12:46 AM PDT (11/3)
Length of Visible Light 10h 57m
Length of Day
9h 53m
First Quarter, 61% of the Moon is Illuminated
Nov 3
First Quarter
Nov 10
Full
Nov 18
Last Quarter
Nov 24
New
Dec 2
First Quarter

Hourly Weather History & Observations

Time (PDT) Temp. Windchill Dew Point Humidity Pressure Visibility Wind Dir Wind Speed Gust Speed Precip Events Conditions
12:53 AM 44.1 °F 39.0 °F 41.0 °F 89% 29.86 in 10.0 mi SE 9.2 mph - N/A   Overcast
1:53 AM 45.0 °F 40.6 °F 41.0 °F 86% 29.84 in 10.0 mi SE 8.1 mph - N/A   Overcast
2:53 AM 44.1 °F 39.5 °F 41.0 °F 89% 29.85 in 10.0 mi SE 8.1 mph - N/A   Mostly Cloudy
3:53 AM 44.1 °F 39.0 °F 41.0 °F 89% 29.85 in 10.0 mi SSE 9.2 mph - N/A   Mostly Cloudy
4:53 AM 45.0 °F 41.2 °F 39.9 °F 82% 29.86 in 10.0 mi SSE 6.9 mph - N/A   Mostly Cloudy
5:39 AM 42.8 °F 37.5 °F 39.2 °F 87% 29.86 in 10.0 mi SSE 9.2 mph - N/A   Scattered Clouds
5:53 AM 43.0 °F 40.3 °F 39.0 °F 86% 29.86 in 10.0 mi SE 4.6 mph - N/A   Mostly Cloudy
6:21 AM 42.8 °F 39.3 °F 39.2 °F 87% 29.86 in 10.0 mi SE 5.8 mph - N/A   Overcast
6:53 AM 43.0 °F 40.3 °F 39.0 °F 86% 29.87 in 10.0 mi ESE 4.6 mph - N/A   Overcast
7:53 AM 43.0 °F 40.3 °F 39.0 °F 86% 29.87 in 10.0 mi SSE 4.6 mph - N/A   Mostly Cloudy
8:53 AM 42.1 °F 37.1 °F 39.0 °F 89% 29.88 in 10.0 mi SE 8.1 mph - N/A   Partly Cloudy
9:53 AM 45.0 °F 41.2 °F 39.0 °F 80% 29.88 in 10.0 mi SE 6.9 mph - N/A   Scattered Clouds
10:53 AM 46.0 °F - 39.0 °F 76% 29.88 in 10.0 mi Calm Calm - N/A   Scattered Clouds
11:53 AM 48.9 °F - 39.0 °F 69% 29.88 in 10.0 mi Calm Calm - N/A   Scattered Clouds
12:53 PM 50.0 °F - 37.9 °F 63% 29.87 in 10.0 mi Variable 3.5 mph - N/A   Mostly Cloudy
1:53 PM 51.1 °F - 37.0 °F 59% 29.86 in 10.0 mi Variable 4.6 mph - N/A   Scattered Clouds
2:53 PM 50.0 °F - 37.0 °F 61% 29.85 in 10.0 mi Calm Calm - N/A   Mostly Cloudy
3:53 PM 51.8 °F - 37.4 °F 58% 29.85 in 10.0 mi NNE 4.6 mph - N/A   Mostly Cloudy
4:53 PM 50.0 °F - 37.0 °F 61% 29.85 in 10.0 mi Calm Calm - N/A   Partly Cloudy
5:53 PM 48.9 °F - 37.0 °F 64% 29.86 in 10.0 mi Calm Calm - N/A   Clear
6:53 PM 46.4 °F - 37.4 °F 71% 29.87 in 10.0 mi Calm Calm - N/A   Scattered Clouds
7:53 PM 46.0 °F - 37.9 °F 73% 29.88 in 10.0 mi Calm Calm - N/A   Mostly Cloudy
8:53 PM 45.0 °F 43.5 °F 37.9 °F 76% 29.88 in 10.0 mi North 3.5 mph - N/A   Clear
9:53 PM 45.0 °F 43.5 °F 39.0 °F 80% 29.89 in 10.0 mi NNE 3.5 mph - N/A   Mostly Cloudy
10:53 PM 45.0 °F - 39.0 °F 80% 29.89 in 10.0 mi Calm Calm - N/A   Mostly Cloudy
11:53 PM 43.0 °F - 39.0 °F 86% 29.90 in 10.0 mi Calm Calm - N/A   Clear